SB KEPS @ AMSAT $ORB13206.O Orbital Elements 13206.OSCAR
HR AMSAT ORBITAL ELEMENTS FOR OSCAR SATELLITES FROM WA5QGD FORT WORTH,TX July 25, 2013 BID: ORB13206.O TO ALL RADIO AMATEURS BT
Satellite: AO-07 Catalog number: 07530 Epoch time: 13205.55616562 Element set: 736 Inclination: 101.4344 deg RA of node: 193.7101 deg Eccentricity: 0.0011682 Arg of perigee: 212.8169 deg Mean anomaly: 294.7640 deg Mean motion: 12.53597099 rev/day Decay rate: -3.2e-07 rev/day^2 Epoch rev: 77046 Checksum: 294
Satellite: FO-29 Catalog number: 24278 Epoch time: 13205.78896124 Element set: 162 Inclination: 098.5526 deg RA of node: 259.3186 deg Eccentricity: 0.0351307 Arg of perigee: 066.8373 deg Mean anomaly: 044.1403 deg Mean motion: 13.53004324 rev/day Decay rate: -5.0e-07 rev/day^2 Epoch rev: 83639 Checksum: 307
Satellite: SO-33 Catalog number: 25509 Epoch time: 13205.43129721 Element set: 545 Inclination: 031.4311 deg RA of node: 216.7439 deg Eccentricity: 0.0351079 Arg of perigee: 124.0059 deg Mean anomaly: 019.1898 deg Mean motion: 14.29102817 rev/day Decay rate: 5.0e-08 rev/day^2 Epoch rev: 77022 Checksum: 278
Satellite: RS-22 Catalog number: 27939 Epoch time: 13206.85350752 Element set: 616 Inclination: 097.7997 deg RA of node: 032.6826 deg Eccentricity: 0.0014613 Arg of perigee: 066.4937 deg Mean anomaly: 293.7810 deg Mean motion: 14.64518355 rev/day Decay rate: 3.52e-06 rev/day^2 Epoch rev: 52495 Checksum: 336
Satellite: VO-52 Catalog number: 28650 Epoch time: 13205.49738037 Element set: 482 Inclination: 097.5681 deg RA of node: 222.1862 deg Eccentricity: 0.0026927 Arg of perigee: 155.2205 deg Mean anomaly: 008.9560 deg Mean motion: 14.84001277 rev/day Decay rate: 7.82e-06 rev/day^2 Epoch rev: 44461 Checksum: 307
Satellite: HO-68 Catalog number: 36122 Epoch time: 13206.28138362 Element set: 753 Inclination: 100.3030 deg RA of node: 262.3668 deg Eccentricity: 0.0007171 Arg of perigee: 266.6467 deg Mean anomaly: 093.3834 deg Mean motion: 13.16305650 rev/day Decay rate: -4.4e-07 rev/day^2 Epoch rev: 17342 Checksum: 278
/EX SB KEPS @ AMSAT $ORB13206.D Orbital Elements 13206.MICROS
HR AMSAT ORBITAL ELEMENTS FOR THE MICROSATS FROM WA5QGD FORT WORTH,TX July 25, 2013 BID: ORB13206.D TO ALL RADIO AMATEURS BT
Satellite: UO-11 Catalog number: 14781 Epoch time: 13206.75547204 Element set: 239 Inclination: 097.8999 deg RA of node: 267.5112 deg Eccentricity: 0.0009814 Arg of perigee: 156.4369 deg Mean anomaly: 203.7295 deg Mean motion: 14.80955959 rev/day Decay rate: 3.57e-06 rev/day^2 Epoch rev: 57964 Checksum: 353
Satellite: AO-16 Catalog number: 20439 Epoch time: 13206.78206600 Element set: 801 Inclination: 098.4716 deg RA of node: 145.9164 deg Eccentricity: 0.0011671 Arg of perigee: 049.9829 deg Mean anomaly: 342.8472 deg Mean motion: 14.32191176 rev/day Decay rate: 7.2e-07 rev/day^2 Epoch rev: 22776 Checksum: 306
Satellite: LO-19 Catalog number: 20442 Epoch time: 13205.90927446 Element set: 735 Inclination: 098.4410 deg RA of node: 146.7290 deg Eccentricity: 0.0012501 Arg of perigee: 042.8686 deg Mean anomaly: 003.1232 deg Mean motion: 14.32401027 rev/day Decay rate: 7.5e-07 rev/day^2 Epoch rev: 22783 Checksum: 267
Satellite: AO-27 Catalog number: 22825 Epoch time: 13206.83453936 Element set: 439 Inclination: 098.6193 deg RA of node: 150.4548 deg Eccentricity: 0.0008814 Arg of perigee: 167.6849 deg Mean anomaly: 226.3138 deg Mean motion: 14.29577839 rev/day Decay rate: 5.4e-07 rev/day^2 Epoch rev: 3415 Checksum: 335
Satellite: IO-26 Catalog number: 22826 Epoch time: 13205.91915718 Element set: 194 Inclination: 098.6135 deg RA of node: 149.8277 deg Eccentricity: 0.0009433 Arg of perigee: 164.1856 deg Mean anomaly: 241.7234 deg Mean motion: 14.29863261 rev/day Decay rate: 7.0e-07 rev/day^2 Epoch rev: 3415 Checksum: 310
Satellite: GO-32 Catalog number: 25397 Epoch time: 13205.02633630 Element set: 120 Inclination: 098.4181 deg RA of node: 171.1880 deg Eccentricity: 0.0001818 Arg of perigee: 146.4448 deg Mean anomaly: 278.0781 deg Mean motion: 14.23350561 rev/day Decay rate: 3.7e-07 rev/day^2 Epoch rev: 78118 Checksum: 283
Satellite: NO-44 Catalog number: 26931 Epoch time: 13206.38419179 Element set: 379 Inclination: 067.0521 deg RA of node: 161.0413 deg Eccentricity: 0.0007907 Arg of perigee: 275.1701 deg Mean anomaly: 229.0812 deg Mean motion: 14.29943365 rev/day Decay rate: 3.7e-07 rev/day^2 Epoch rev: 61688 Checksum: 305
Satellite: SO-50 Catalog number: 27607 Epoch time: 13206.59994091 Element set: 125 Inclination: 064.5565 deg RA of node: 147.1969 deg Eccentricity: 0.0041133 Arg of perigee: 151.5319 deg Mean anomaly: 208.8542 deg Mean motion: 14.73007277 rev/day Decay rate: 5.44e-06 rev/day^2 Epoch rev: 56937 Checksum: 318
Satellite: CO-55 Catalog number: 27844 Epoch time: 13206.43882387 Element set: 700 Inclination: 098.7017 deg RA of node: 214.9551 deg Eccentricity: 0.0010795 Arg of perigee: 135.2022 deg Mean anomaly: 330.8491 deg Mean motion: 14.21245369 rev/day Decay rate: 1.56e-06 rev/day^2 Epoch rev: 52216 Checksum: 296
Satellite: CO-57 Catalog number: 27848 Epoch time: 13206.59553318 Element set: 646 Inclination: 098.7104 deg RA of node: 214.6422 deg Eccentricity: 0.0010608 Arg of perigee: 140.1505 deg Mean anomaly: 006.9783 deg Mean motion: 14.20968154 rev/day Decay rate: 1.23e-06 rev/day^2 Epoch rev: 52211 Checksum: 289
Satellite: AO-51 Catalog number: 28375 Epoch time: 13206.45364234 Element set: 613 Inclination: 098.2039 deg RA of node: 160.3842 deg Eccentricity: 0.0082190 Arg of perigee: 260.0323 deg Mean anomaly: 248.5502 deg Mean motion: 14.41142385 rev/day Decay rate: 9.0e-07 rev/day^2 Epoch rev: 47684 Checksum: 283
Satellite: CP3 Catalog number: 31129 Epoch time: 13206.47712256 Element set: 512 Inclination: 097.9002 deg RA of node: 196.9582 deg Eccentricity: 0.0098653 Arg of perigee: 308.6729 deg Mean anomaly: 215.7807 deg Mean motion: 14.53742623 rev/day Decay rate: 4.81e-06 rev/day^2 Epoch rev: 33255 Checksum: 313
Satellite: CO-65 Catalog number: 32785 Epoch time: 13206.19844948 Element set: 692 Inclination: 097.7486 deg RA of node: 262.6459 deg Eccentricity: 0.0014840 Arg of perigee: 177.3773 deg Mean anomaly: 218.6455 deg Mean motion: 14.83993982 rev/day Decay rate: 9.06e-06 rev/day^2 Epoch rev: 28351 Checksum: 370
Satellite: PRISM Catalog number: 33493 Epoch time: 13206.45805841 Element set: 15 Inclination: 098.2219 deg RA of node: 004.6642 deg Eccentricity: 0.0019417 Arg of perigee: 069.7823 deg Mean anomaly: 290.5476 deg Mean motion: 14.86228297 rev/day Decay rate: 2.076e-05 rev/day^2 Epoch rev: 24360 Checksum: 305
Satellite: SOHLA-1 Catalog number: 33496 Epoch time: 13205.91098155 Element set: 103 Inclination: 098.1386 deg RA of node: 321.8384 deg Eccentricity: 0.0006624 Arg of perigee: 190.6346 deg Mean anomaly: 280.7780 deg Mean motion: 14.70330300 rev/day Decay rate: 2.47e-06 rev/day^2 Epoch rev: 24141 Checksum: 278
Satellite: SO-67 Catalog number: 35870 Epoch time: 13206.76386255 Element set: 269 Inclination: 097.1896 deg RA of node: 234.1397 deg Eccentricity: 0.0002414 Arg of perigee: 135.6095 deg Mean anomaly: 344.3863 deg Mean motion: 15.27537930 rev/day Decay rate: 3.843e-05 rev/day^2 Epoch rev: 21414 Checksum: 328
Satellite: TISAT-1 Catalog number: 36799 Epoch time: 13206.83597058 Element set: 289 Inclination: 098.0342 deg RA of node: 291.7588 deg Eccentricity: 0.0013303 Arg of perigee: 306.3934 deg Mean anomaly: 053.6025 deg Mean motion: 14.83483455 rev/day Decay rate: 1.373e-05 rev/day^2 Epoch rev: 16430 Checksum: 318
Satellite: STUDSAT Catalog number: 36801 Epoch time: 13205.83898211 Element set: 657 Inclination: 098.0453 deg RA of node: 294.2534 deg Eccentricity: 0.0009947 Arg of perigee: 284.4845 deg Mean anomaly: 219.8584 deg Mean motion: 14.88868410 rev/day Decay rate: 3.788e-05 rev/day^2 Epoch rev: 16431 Checksum: 343
Satellite: ALMASAT-1 Catalog number: 38078 Epoch time: 13206.78258516 Element set: 466 Inclination: 069.4718 deg RA of node: 111.3295 deg Eccentricity: 0.0685695 Arg of perigee: 097.5986 deg Mean anomaly: 270.3505 deg Mean motion: 14.26586191 rev/day Decay rate: 1.9452e-04 rev/day^2 Epoch rev: 7474 Checksum: 353
Satellite: XATCOBEO Catalog number: 38082 Epoch time: 13206.73061273 Element set: 351 Inclination: 069.4734 deg RA of node: 082.1213 deg Eccentricity: 0.0551925 Arg of perigee: 081.4825 deg Mean anomaly: 284.8318 deg Mean motion: 14.60960743 rev/day Decay rate: 6.6957e-04 rev/day^2 Epoch rev: 7554 Checksum: 311
Satellite: SOMP Catalog number: 39135 Epoch time: 13206.10107730 Element set: 205 Inclination: 064.8778 deg RA of node: 089.5042 deg Eccentricity: 0.0009197 Arg of perigee: 202.9218 deg Mean anomaly: 315.1068 deg Mean motion: 15.00523219 rev/day Decay rate: 2.641e-05 rev/day^2 Epoch rev: 1451 Checksum: 261
Satellite: CUBEBUG-1 Catalog number: 39153 Epoch time: 13206.22212081 Element set: 249 Inclination: 098.0729 deg RA of node: 281.9694 deg Eccentricity: 0.0017453 Arg of perigee: 325.9806 deg Mean anomaly: 034.0301 deg Mean motion: 14.76517793 rev/day Decay rate: 7.08e-06 rev/day^2 Epoch rev: 1329 Checksum: 295
Satellite: ESTCUBE-1 Catalog number: 39161 Epoch time: 13206.71666715 Element set: 217 Inclination: 098.1258 deg RA of node: 284.7698 deg Eccentricity: 0.0010284 Arg of perigee: 358.0079 deg Mean anomaly: 002.1084 deg Mean motion: 14.69034304 rev/day Decay rate: 6.16e-06 rev/day^2 Epoch rev: 1165 Checksum: 291
/EX SB KEPS @ AMSAT $ORB13206.W Orbital Elements 13206.WEATHER
HR AMSAT ORBITAL ELEMENTS FOR WEATHER SATELLITES FROM WA5QGD FORT WORTH,TX July 25, 2013 BID: ORB13206.W TO ALL RADIO AMATEURS BT
Satellite: NOAA-10 Catalog number: 16969 Epoch time: 13205.48223543 Element set: 437 Inclination: 098.5442 deg RA of node: 232.5057 deg Eccentricity: 0.0013367 Arg of perigee: 133.9152 deg Mean anomaly: 332.1704 deg Mean motion: 14.27653602 rev/day Decay rate: 2.2e-07 rev/day^2 Epoch rev: 39726 Checksum: 286
